TimeEST,TemperatureF,Dew PointF,Humidity,Sea Level PressureIn,VisibilityMPH,Wind Direction,Wind SpeedMPH,Gust SpeedMPH,PrecipitationIn,Events,Conditions,WindDirDegrees,DateUTC
12:54 AM,28.9,21.0,72,29.89,8.0,WSW,15.0,29.9,N/A,,Overcast,240,2013-01-04 05:54:00
1:44 AM,28.4,21.2,74,29.81,9.0,WSW,13.8,27.6,N/A,,Scattered Clouds,240,2013-01-04 06:44:00
1:54 AM,28.0,19.9,72,29.82,8.0,SW,20.7,29.9,N/A,,Partly Cloudy,230,2013-01-04 06:54:00
2:54 AM,28.9,21.0,72,29.83,9.0,WSW,19.6,36.8,N/A,,Partly Cloudy,250,2013-01-04 07:54:00
3:09 AM,28.4,21.2,74,29.81,9.0,WSW,20.7,28.8,N/A,,Mostly Cloudy,240,2013-01-04 08:09:00
3:54 AM,30.0,23.0,75,29.81,8.0,WSW,23.0,41.4,N/A,,Mostly Cloudy,250,2013-01-04 08:54:00
4:04 AM,30.2,23.0,75,29.78,6.0,WSW,19.6,36.8,N/A,,Haze,250,2013-01-04 09:04:00
4:13 AM,30.2,23.0,75,29.79,8.0,WSW,25.3,36.8,N/A,,Mostly Cloudy,250,2013-01-04 09:13:00
4:54 AM,30.0,21.9,72,29.81,6.0,West,27.6,36.8,N/A,,Haze,260,2013-01-04 09:54:00
5:54 AM,28.9,19.9,69,29.83,9.0,West,23.0,32.2,N/A,,Mostly Cloudy,260,2013-01-04 10:54:00
8:54 AM,28.0,19.9,72,29.86,10.0,West,13.8,19.6,N/A,,Overcast,270,2013-01-04 13:54:00
9:54 AM,28.0,19.9,72,29.87,10.0,West,10.4,20.7,N/A,,Overcast,260,2013-01-04 14:54:00
10:54 AM,28.9,19.9,69,29.88,10.0,West,12.7,18.4,N/A,,Overcast,270,2013-01-04 15:54:00
11:54 AM,28.9,21.0,72,29.87,10.0,WSW,9.2,-,N/A,,Overcast,250,2013-01-04 16:54:00
12:54 PM,28.9,21.9,75,29.86,10.0,West,15.0,26.5,N/A,,Overcast,260,2013-01-04 17:54:00
1:12 PM,28.4,21.2,74,29.82,10.0,WSW,15.0,25.3,N/A,,Overcast,250,2013-01-04 18:12:00
1:54 PM,28.0,21.9,78,29.85,10.0,WSW,16.1,28.8,N/A,,Overcast,250,2013-01-04 18:54:00
2:54 PM,28.9,23.0,78,29.86,10.0,WSW,15.0,31.1,N/A,,Overcast,240,2013-01-04 19:54:00
3:54 PM,28.9,23.0,78,29.87,10.0,WSW,13.8,29.9,N/A,,Overcast,250,2013-01-04 20:54:00
4:54 PM,30.9,24.1,76,29.89,10.0,West,15.0,23.0,N/A,,Overcast,260,2013-01-04 21:54:00
5:30 PM,30.2,24.8,80,29.87,10.0,West,11.5,24.2,N/A,,Scattered Clouds,270,2013-01-04 22:30:00
6:54 PM,32.0,24.1,73,29.95,10.0,West,8.1,16.1,N/A,,Clear,270,2013-01-04 23:54:00
7:54 PM,34.0,23.0,64,29.99,10.0,NW,17.3,24.2,N/A,,Overcast,310,2013-01-05 00:54:00
8:54 PM,34.0,21.9,61,30.01,10.0,WNW,12.7,21.9,N/A,,Overcast,290,2013-01-05 01:54:00
9:54 PM,33.1,24.1,70,30.03,10.0,NW,24.2,28.8,N/A,,Overcast,320,2013-01-05 02:54:00
10:54 PM,30.9,19.9,64,30.07,10.0,NW,16.1,29.9,N/A,,Overcast,320,2013-01-05 03:54:00
11:54 PM,30.9,19.0,61,30.10,10.0,NW,15.0,-,N/A,,Overcast,310,2013-01-05 04:54:00